EHI
0 0 0 0 0 0 0 0 0 0 0 0 0 0 0 0 0 0 0 0 0 0 0 0 0 0 0 0 0 0 0 0 0 0 0 0 0 0 0 0 0 0 0 0
0 0 0 0 0 0 0 0 0 0 0 0 0 0 0 0 0 0 0 0 0 0 0 0 0 0 0 0 0 0 0 0 0 0 0 0 0 0 0 0 0 0 0 0
0 0 0 0 0 0 0 0 0 0 0 0 0 0 0 0 0 0 0 0 0 0 0 0 0 0 0 0 0 0 0 0 0 0 0 0 0 0 0 0 0 0 0 0
0 0 0 0 0 0 0 0 0 0 0 0 0 0 0 0 0 0 0 0 0 0 0 0 0 0 0 0 0 0 0 0 0 0 0 0 0 0 0 0 0 0 0 0
0 0 0 0 0 0 0 0 0 0 0 0 0 0 0 0 0 0 0 0 0 0 0 0 0 0 0 0 0 0 0 0 0 0 0 0 0 0 0 0 0 0 0 0
0 0 0 0 0 0 0 0 0 0 0 0 0 0 0 0 0 0 0 0 0 0 0 0 0 0 0 0 0 0 0 0 0 0 0 0 0 0 0 0 0 0 0 0
0 0 0 0 0 0 0 0 0 0 0 0 0 0 0 0 0 0 0 0 0 0 0 0 0 0 0 0 0 0 0 0 0 0 0 0 0 0 0 0 0 0 0 0
0 0 0 0 0 0 0 0 0 0 0 0 0 0 0 0 0 0 0 0 0 0 0 0 0 0 0 0 0 0 0 0 0 0 0 0 0 0 0 0 0 0 0 0
0 0 0 0 0 0 0 0 0 0 0 0 0 0 0 0 0 0 0 0 0 0 0 0 0 0 0 0 0 0 0 0 0 0 0 0 0 0 0 0 0 0 0 0
0 0 0 0 0 0 0 0 0 0 0 0 0 0 0 0 0 0 0 0 0 0 0 0 0 0 0 0 0 0 0 0 0 0 0 0 0 0 0 0 0 0 0 0
0 0 0 0 0 0 0 0 0 0 0 0 0 0 0 0 0 0 0 0 0 0 0 0 0 0 0 0 0 0 0 0 0 0 0 0 0 0 0 0 0 0 0 0
0 0 0 0 0 0 0 0 0 0 0 0 0 0 0 0 0 0 0 0 0 0 0 0 0 0 0 0 0 0 0 0 0 0 0 0 0 0 0 0 0 0 0 0
0 0 0 0 0 0 0 0 0 0 0 0 0 0 0 0 0 0 0 0 0 0 0 0 0 0 0 0 0 0 0 0 0 0 0 0 0 0 0 0 0 0 0 0
0 0 0 0 0 0 0 0 0 0 0 0 0 0 0 0 0 0 0 0 0 0 0 0 0 0 0 0 0 0 0 0 0 0 0 0 0 0 0 0 0 0 0 0
0 0 0 0 0 0 0 0 0 0 0 0 0 0 0 0 0 0 0 0 0 0 0 0 0 0 0 0 0 0 0 0 0 0 0 0 0 0 0 0 0 0 0 0
0 0 0 0 0 0 0 0 0 0 0 0 0 0 0 0 0 0 0 0 0 0 0 0 0 0 0 0 0 0 0 0 0 0 0 0 0 0 0 0 0 0 0 0
0 0 0 0 0 0 0 0 0 0 0 0 0 0 0 0 0 0 0 0 0 0 0 0 0 0 0 0 0 0 0 0 0 0 0 0 0 0 0 0 0 0 0 0
0 0 0 0 0 0 0 0 0 0 0 0 0 0 0 0 0 0 0 0 0 0 0 0 0 0 0 0 0 0 0 0 0 0 0 0 0 0 0 0 0 0 0 0
0 0 0 0 0 0 0 0 0 0 0 0 0 0 0 0 0 0 0 0 0 0 0 0 0 0 0 0 0 0 0 0 0 0 0 0 0 0 0 0 0 0 0 0
0 0 0 0 0 0 0 0 0 0 0 0 0 0 0 0 0 0 0 0 0 0 0 0 0 0 0 0 0 0 0 0 0 0 0 0 0 0 0 0 0 0 0 0
0 0 0 0 0 0 0 0 0 0 0 0 0 0 0 0 0 0 0 0 0 0 0 0 0 0 0 0 0 0 0 0 0 0 0 0 0 0 0 0 0 0 0 0
0 0 0 0 0 0 0 0 0 0 0 0 0 0 0 0 0 0 0 0 0 0 0 0 0 0 0 0 0 0 0 0 0 0 0 0 0 0 0 0 0 0 0 0
0 0 0 0 0 0 0 0 0 0 0 0 0 0 0 0 0 0 0 0 0 0 0 0 0 0 0 0 0 0 0 0 0 0 0 0 0 0 0 0 0 0 0 0
0 0 0 0 0 0 0 0 0 0 0 0 0 0 0 0 0 0 0 0 0 0 0 0 0 0 0 0 0 0 0 0 0 0 0 0 0 0 0 0 0 0 0 0
0 0 0 0 0 0 0 0 0 0 0 0 0 0 0 0 0 0 0 0 0 0 0 0 0 0 0 0 0 0 0 0 0 0 0 0 0 0 0 0 0 0 0 0
0 0 0 0 0 0 0 0 0 0 0 0 0 0 0 0 0 0 0 0 0 0 0 0 0 0 0 0 0 0 0 0 0 0 0 0 0 0 0 0 0 0 0 0
0 0 0 0 0 0 0 0 0 0 0 0 0 0 0 0 0 0 0 0 0 0 0 0 0 0 0 0 0 0 0 0 0 0 0 0 0 0 0 0 0 0 0 0
Wind_Speed
8 8 6 8 9 6 7 8 9 9 10 10 8 8 7 6 6 6 6 7 6 6 5 5 5 4 3 2 2 1 2 2 2 2 2 2 2 2 2 2 3 3 3 3
6 6 7 10 10 9 9 8 9 11 11 7 7 5 6 5 5 6 6 7 7 6 6 5 5 5 4 3 2 2 2 2 2 1 1 2 2 2 2 2 2 2 3 3
5 4 5 8 6 6 4 4 5 8 8 7 7 7 7 6 5 6 7 7 7 6 6 5 5 5 4 4 2 1 2 2 2 2 2 2 2 2 2 3 2 3 3 4
4 2 8 6 2 3 4 4 4 4 6 6 7 7 6 4 4 6 7 7 7 6 7 5 5 4 4 3 2 2 2 2 2 2 2 2 2 3 3 3 3 3 3 4
3 4 8 5 3 2 4 6 3 4 7 8 7 6 4 3 4 6 6 7 6 6 6 5 4 4 3 3 2 2 2 2 2 2 2 3 3 3 3 2 2 3 3 3
3 4 7 4 4 3 1 5 3 4 7 7 6 5 7 7 8 8 7 6 7 6 5 4 4 3 3 3 3 3 3 3 3 2 3 3 4 3 3 3 3 2 3 3
6 6 7 5 4 2 1 5 6 5 6 5 4 6 8 9 8 7 7 8 6 6 5 4 3 2 3 4 4 4 3 3 3 3 3 3 3 2 2 2 2 2 3 3
4 6 8 3 2 1 5 5 5 6 6 7 8 9 9 9 9 8 8 8 6 5 5 4 3 3 4 5 5 4 3 3 3 2 2 2 2 2 2 3 3 2 2 2
6 7 4 2 2 3 3 6 7 7 8 8 9 9 9 9 8 8 7 7 6 5 6 5 4 3 4 5 4 3 3 3 2 2 2 2 3 3 2 3 3 2 2 2
5 7 6 6 5 5 5 7 8 8 9 8 9 9 9 8 8 8 8 7 6 5 6 6 5 4 4 4 4 3 3 3 2 2 2 2 2 2 3 3 3 3 3 3
6 6 6 4 4 6 7 7 8 8 8 7 8 9 8 8 9 8 8 6 5 5 6 6 5 5 4 4 3 3 3 2 2 2 2 2 2 2 3 4 5 4 4 4
5 4 5 9 8 7 7 8 8 9 9 8 7 8 9 8 8 7 7 6 6 5 6 6 5 5 4 4 3 2 2 2 2 1 1 1 1 1 2 2 4 4 4 3
5 6 6 8 8 6 7 8 9 8 8 9 8 7 8 8 8 7 7 6 6 6 6 6 5 5 4 3 3 2 2 2 2 1 1 2 2 2 0 1 1 1 2 3
4 4 5 6 7 8 8 8 8 8 7 7 7 7 7 7 7 7 7 6 5 5 5 5 5 5 4 3 3 2 2 2 2 1 2 2 2 2 2 1 0 0 0 2
5 5 6 8 8 8 8 7 8 8 8 8 7 7 7 7 7 7 6 5 5 4 5 4 4 5 3 3 3 2 2 2 1 1 1 1 1 1 1 1 1 1 0 1
8 7 6 7 8 9 9 8 8 9 9 9 8 8 8 7 7 6 5 5 4 5 4 4 4 4 3 2 2 2 2 2 2 1 1 1 1 1 1 1 1 1 1 0
6 7 8 9 10 10 9 9 8 8 8 8 8 9 8 7 6 6 6 5 4 4 4 4 4 4 3 2 2 1 1 1 1 1 0 0 0 1 1 1 1 1 0 0
5 7 7 8 8 9 9 9 8 8 7 8 8 7 6 6 6 6 6 5 4 4 4 4 4 4 3 3 2 1 1 1 1 0 0 1 1 1 1 1 1 1 1 1
6 6 7 7 7 7 7 8 7 7 7 6 6 6 6 5 5 5 5 4 4 4 5 4 6 4 3 3 3 1 1 1 1 1 1 1 1 1 1 1 1 1 1 1
6 7 7 7 7 6 7 7 6 6 6 5 5 5 6 6 5 5 5 4 3 3 4 4 4 3 3 3 3 1 1 1 1 1 1 1 1 1 1 1 1 1 1 1
7 7 7 7 7 7 7 6 6 6 6 6 5 5 6 6 6 5 4 4 5 5 4 5 4 3 3 3 3 2 2 2 2 1 1 1 1 1 1 1 1 1 0 1
6 6 6 6 6 7 6 6 5 6 6 6 6 5 6 6 6 5 5 3 4 6 4 3 3 4 4 4 3 3 2 2 2 2 1 1 1 1 1 1 1 0 0 1
5 5 6 6 6 6 6 5 5 5 5 6 6 6 6 5 5 5 5 5 4 6 5 3 5 6 7 4 3 3 3 2 2 1 1 1 1 1 1 1 0 0 0 0
5 5 5 5 4 5 6 6 6 5 5 5 5 5 5 5 4 4 4 7 8 8 4 6 8 8 8 4 3 3 3 2 2 2 2 1 1 1 1 1 1 1 0 0
5 5 4 5 5 4 5 5 5 5 5 5 6 6 5 4 4 4 5 5 8 8 5 7 9 9 6 3 3 3 3 2 2 2 2 1 1 1 1 1 1 1 1 1
4 4 4 3 3 3 4 4 4 4 4 5 5 5 5 4 5 4 4 5 6 7 5 4 5 6 4 4 3 3 3 3 3 3 2 2 2 2 1 1 2 1 1 1
4 3 3 3 3 3 3 3 4 4 4 4 5 5 5 5 5 5 5 5 5 5 4 4 4 4 4 4 4 3 3 3 3 3 2 2 2 2 2 2 2 2 1 1
Wind_Direction
259 269 264 259 264 244 225 226 237 255 262 279 299 304 311 319 330 334 335 338 335 333 330 331 329 322 305 280 260 232 219 224 235 233 228 227 225 225 224 220 220 211 202 205
279 269 270 271 265 252 247 247 251 266 273 283 294 305 313 315 320 317 318 320 324 325 325 320 315 313 307 295 274 240 227 240 244 230 225 226 225 218 218 225 225 209 205 201
272 300 309 268 246 228 231 233 228 248 267 311 317 315 307 304 306 302 306 310 312 314 307 303 302 303 298 290 286 251 238 247 246 233 233 236 230 213 216 224 223 219 213 203
272 315 251 250 229 213 231 252 236 258 292 301 290 293 293 289 296 304 306 308 309 310 309 306 305 311 309 302 288 259 251 250 248 243 246 243 230 223 223 219 218 222 221 213
231 255 271 287 295 266 243 269 254 276 296 308 315 313 300 303 313 299 298 299 299 299 300 299 301 307 314 310 300 272 261 257 252 245 245 239 234 232 227 217 222 224 219 211
222 244 256 266 301 311 249 273 304 313 305 318 341 319 298 320 321 314 313 310 309 311 309 305 302 306 309 304 293 275 268 266 260 245 239 239 237 238 231 214 221 224 225 219
231 243 263 275 311 24 181 273 321 316 304 306 284 267 290 307 310 308 307 308 309 310 309 303 304 302 299 299 290 287 281 276 269 257 248 242 238 237 223 213 206 216 225 228
214 235 255 310 26 199 258 298 308 309 305 296 290 292 296 300 304 309 311 312 313 313 313 312 311 307 299 293 296 298 284 273 270 264 255 240 222 230 218 202 194 206 214 229
210 233 265 279 253 278 305 303 304 304 301 297 294 295 299 302 303 305 303 304 309 310 311 311 308 294 289 295 301 298 288 274 273 269 253 232 215 215 212 201 196 207 209 220
258 267 286 297 297 307 310 300 300 298 297 297 294 296 300 302 304 304 304 305 308 310 309 307 308 301 289 295 297 290 283 277 269 257 251 239 230 220 210 205 203 209 211 216
262 284 308 295 294 309 312 309 308 308 300 295 293 295 296 298 299 299 301 303 301 300 300 297 301 303 303 299 296 289 285 286 277 259 236 227 233 232 234 229 218 215 214 207
257 278 284 289 298 305 306 307 308 308 307 303 293 292 295 295 294 295 297 302 302 301 299 298 297 298 301 299 294 282 288 287 279 257 240 215 213 284 295 267 249 235 224 219
273 295 282 285 298 304 303 304 305 304 300 303 303 298 296 296 298 298 296 300 299 297 299 298 297 297 302 305 300 280 269 274 273 268 250 224 206 202 228 7 33 174 183 192
303 314 301 305 308 311 310 308 308 307 305 302 302 305 303 300 302 301 298 295 295 296 298 298 298 299 304 305 300 292 282 275 270 253 251 232 213 209 196 181 188 32 136 155
322 314 294 301 308 314 317 317 317 318 319 317 314 311 309 307 304 302 301 302 303 303 303 305 305 305 310 305 299 292 287 278 271 264 255 243 209 186 178 172 171 170 72 109
313 311 307 310 312 316 320 319 315 314 316 316 318 316 313 308 306 308 308 308 304 302 303 305 305 309 317 313 311 303 292 289 293 275 250 226 184 163 157 151 149 144 145 139
316 317 318 317 316 314 312 310 306 306 310 313 314 315 316 317 319 319 317 316 311 306 306 307 310 316 322 326 327 319 317 307 318 345 19 144 140 141 138 138 142 149 181 186
288 287 292 297 302 307 310 312 311 309 309 310 315 319 323 324 320 318 321 326 332 335 333 332 331 334 341 344 342 337 334 324 328 27 50 55 71 93 118 133 142 141 111 107
312 310 311 311 310 308 309 312 314 312 314 318 321 323 325 327 326 325 327 334 340 337 335 340 347 354 352 351 354 358 359 5 15 29 49 69 57 60 76 96 110 113 111 102
329 329 328 326 328 326 322 324 325 325 326 328 331 334 338 339 337 339 345 346 339 325 327 344 353 356 357 358 4 20 27 24 26 31 39 55 67 61 55 57 70 80 90 99
328 329 329 330 330 331 330 331 334 334 336 340 341 339 338 339 342 344 349 348 343 350 354 355 0 360 3 10 14 30 33 27 24 27 33 44 56 53 49 51 53 60 78 84
323 324 326 329 331 332 334 336 338 339 342 346 346 346 347 347 348 350 351 340 338 351 359 356 2 10 17 20 27 35 37 30 21 18 23 27 41 48 45 44 44 39 54 74
317 318 322 325 326 324 330 339 344 345 346 347 347 348 349 344 345 347 345 344 349 359 3 2 9 16 20 28 33 33 31 25 16 11 10 9 12 23 37 33 18 30 49 43
320 323 324 325 331 339 343 343 345 348 348 348 350 349 347 347 349 350 340 345 357 4 12 9 15 19 23 32 28 25 22 15 11 9 4 8 12 12 17 21 13 8 14 11
321 323 329 339 344 340 336 338 345 350 354 355 355 354 352 350 343 339 345 353 -0 8 10 9 14 17 23 22 21 18 13 5 4 8 9 9 4 1 0 358 353 342 337 326
324 326 327 328 327 328 333 339 345 345 346 347 349 351 351 352 352 349 351 358 3 7 8 3 3 8 12 12 11 9 6 359 1 6 5 2 358 355 352 353 348 336 324 315
327 330 333 339 342 343 343 343 343 342 343 342 340 345 349 351 354 357 359 1 4 6 4 3 5 6 7 7 6 5 2 359 359 358 357 356 350 344 342 338 329 323 318 309